[[{"header":{"parameterUnit":"m.s-1","parameterCategory":1,"la1":30.2991,"la2":30.254,"lo1":-89.0895,"lo2":-89.0444,"dy":0.0017,"dx":0.0017,"nx":28,"ny":28,"refTime":"2026-01-04T03:00:00:Z","depth":0,"parameterNumber":2,"parameterNumberName":"U-component_of_WINDS"},"data":[0,0,0,0,0,0,0,0,0,0,0,0,0,0,0,0,0,0,0,0,0,0,0,0,0,0,0,0,0,0,0,0,0,0,0,0,0,0,0,0,0,0,0,0,0,0,0,0,0,0,0,0,0,0,0,0,0,0,1.8407,1.8406,0,1.8315,1.8314,1.8313,1.8267,1.8267,1.8267,1.8267,1.8167,1.8165,1.8162,0,0,0,0,0,0,0,0,0,0,0,0,0,1.8538,1.8536,1.8407,1.8406,1.8405,1.8315,1.8314,1.8312,1.8267,1.8267,1.8267,1.8267,1.8168,1.8165,1.8162,0,0,0,0,0,0,0,0,0,0,0,0,0,1.8467,1.8535,1.8407,1.8371,1.8367,1.8315,1.8314,1.8312,1.8267,1.8267,1.8267,1.8267,1.8169,1.8165,1.8162,1.8137,0,0,1.8149,1.8148,0,0,0,0,0,0,0,0,1.8471,1.8462,1.8377,1.8373,1.8369,1.8302,1.8323,1.8253,1.8267,1.8305,1.8267,1.8267,1.8212,1.8204,1.8187,1.8132,1.8128,1.8149,1.8147,1.8145,1.8144,0,0,0,0,0,0,0,1.8476,1.8466,1.837,1.8376,1.8371,1.8358,1.8348,1.831,1.8259,1.8301,1.8298,1.8288,1.8209,1.8191,1.8184,1.8127,1.8149,1.8146,1.8143,1.8142,1.8046,1.8046,0,0,0,0,0,0,1.8487,1.847,1.8373,1.8367,1.8421,1.8355,1.8344,1.8323,1.826,1.825,1.8288,1.8286,1.8198,1.8189,1.8181,1.8147,1.8145,1.8141,1.8139,1.8046,1.8046,1.8046,0,0,0,0,0,0,1.849,1.8479,1.8377,1.8418,1.8404,1.8353,1.833,1.8322,1.8303,1.8249,1.824,1.8279,1.8197,1.8186,1.8148,1.8143,1.8139,1.8136,1.8046,1.8046,1.8046,1.808,0,0,0,0,0,0,1.8494,1.8481,1.8472,1.8418,1.8402,1.8348,1.833,1.832,1.8297,1.8294,1.8238,1.8229,1.8197,1.8154,1.8144,1.8138,1.8133,1.8047,1.8046,1.8046,1.808,1.8081,1.8083,0,0,0,0,0,1.8499,1.8484,1.8472,1.846,1.839,1.8348,1.8338,1.8303,1.8297,1.8287,1.8252,1.8231,1.8146,1.8151,1.8139,1.8131,1.8047,1.8046,1.8046,1.8079,1.8081,1.8083,0,0,0,0,0,0,1.8537,1.8477,1.8462,1.843,1.8394,1.834,1.8326,1.8306,1.827,1.8269,1.8225,1.8212,1.8178,1.8151,1.8158,1.8103,1.8094,1.8091,1.8123,1.8124,1.8126,1.8133,1.8129,0,0,0,0,0,1.8542,1.8514,1.8462,1.8438,1.8422,1.8377,1.8357,1.8333,1.8294,1.8278,1.8241,1.8202,1.8167,1.8144,1.8108,1.8075,1.8062,1.8064,1.8066,1.8067,1.8065,1.8045,1.8045,1.8045,1.8045,1.8045,0,0,1.8551,1.8515,1.85,1.8445,1.8415,1.8385,1.8365,1.8334,1.8311,1.8273,1.8235,1.8207,1.816,1.8125,1.8107,1.8101,1.8063,1.8067,1.8069,1.8066,1.8045,1.8045,1.8045,1.8044,1.8044,1.8044,0,0,1.8553,1.8523,1.85,1.8471,1.8426,1.8396,1.8391,1.8339,1.8319,1.8281,1.8252,1.8223,1.8163,1.8131,1.8107,1.8097,1.8075,1.8086,1.8095,1.8076,1.8076,1.8076,1.8071,1.807,1.8084,1.8084,1.8085,0,1.857,1.8526,1.849,1.8462,1.8438,1.8404,1.8379,1.8351,1.8296,1.828,1.8274,1.8198,1.8165,1.8121,1.8119,1.81,1.8092,1.8092,1.8079,1.8078,1.8078,1.8073,1.8071,1.8086,1.8086,1.8086,1.8086,0,1.8548,1.8518,1.8504,1.8454,1.8429,1.8402,1.8361,1.834,1.8318,1.8288,1.8249,1.8208,1.8163,1.8151,1.8129,1.8104,1.8101,1.8088,1.8077,1.808,1.8075,1.8073,1.8088,1.8088,1.8087,1.8087,0,0,1.8571,1.8502,1.8497,1.8474,1.8422,1.8397,1.8368,1.8326,1.8308,1.8271,1.8245,1.8195,1.8182,1.8155,1.8129,1.8112,1.8105,1.81,1.8098,1.8102,1.8074,1.8084,1.8083,1.8091,1.8091,1.809,1.8078,0,1.8565,1.8514,1.8481,1.8442,1.8413,1.838,1.8355,1.8319,1.8291,1.8261,1.8228,1.8194,1.818,1.8163,1.8145,1.811,1.8099,1.8111,1.8065,1.8064,1.8077,1.808,1.8091,1.8081,1.8076,1.8075,1.8075,0,1.8551,1.8517,1.8476,1.8427,1.8413,1.8391,1.835,1.8322,1.828,1.8261,1.8231,1.8204,1.8171,1.8164,1.8116,1.8125,1.8104,1.8084,1.8082,1.8076,1.8069,1.8073,1.8077,1.8076,1.8072,1.8072,1.8072,0,1.8571,1.8514,1.8482,1.8463,1.8405,1.8391,1.8366,1.8324,1.8301,1.8264,1.8248,1.8207,1.8185,1.8153,1.8115,1.8114,1.8071,1.8061,1.8053,1.8054,1.8045,1.8046,1.8045,1.8033,1.8033,1.8033,1.8033,0,1.8567,1.8543,1.8491,1.8471,1.8442,1.8404,1.8377,1.8348,1.8312,1.8285,1.8253,1.8228,1.818,1.8149,1.8119,1.8084,1.8074,1.8056,1.8049,1.8059,1.8061,1.8044,1.8043,1.8032,1.8033,1.8033,1.8033,0,1.8584,1.8548,1.8511,1.846,1.8447,1.8428,1.8383,1.8361,1.8332,1.8298,1.8288,1.824,1.8202,1.8162,1.8109,1.8089,1.8054,1.8044,1.8069,1.8065,1.8058,1.8059,1.8046,1.8042,1.8034,1.8034,1.8034,0,1.8584,1.8565,1.8512,1.8493,1.8469,1.8438,1.8414,1.8375,1.8352,1.8303,1.8287,1.8247,1.8212,1.8151,1.8111,1.8071,1.8058,1.8057,1.8052,1.8063,1.8057,1.8059,1.8056,1.8058,1.8058,1.8059,1.8059,0,1.8587,1.857,1.8539,1.8501,1.8474,1.8441,1.8408,1.8393,1.8347,1.8322,1.8283,1.8256,1.8203,1.8163,1.8117,1.8089,1.8066,1.8061,1.8056,1.8066,1.8082,1.8073,1.8073,1.8061,1.8061,1.8061,1.806,1.806,1.8595,1.8576,1.8536,1.8502,1.8473,1.8442,1.842,1.8388,1.8355,1.831,1.8289,1.8249,1.8207,1.8144,1.8117,1.8084,1.8077,1.8071,1.807,1.8069,1.8071,1.8088,1.8076,1.8075,1.8075,1.8075,1.8075,0,1.8596,1.8569,1.8537,1.8492,1.8464,1.8447,1.8409,1.8386,1.8353,1.8316,1.8283,1.8238,1.8199,1.8156,1.8114,1.8096,1.8084,1.8086,1.8086,1.808,1.808,1.8087,1.8096,1.8096,1.8096,1.8096,1.8096,1.8096,1.8593,1.8561,1.8539,1.8491,1.8464,1.8427,1.8406,1.8377,1.8348,1.8299,1.8267,1.824,1.82,1.8155,1.8118,1.8106,1.8091,1.8096,1.8081,1.8082,1.808,1.8079,1.8086,1.8094,1.8094,1.8084,1.8084,1.8084]},{"header":{"parameterUnit":"m.s-1","parameterCategory":1,"la1":30.2991,"la2":30.254,"lo1":-89.0895,"lo2":-89.0444,"dy":0.0017,"dx":0.0017,"nx":28,"ny":28,"refTime":"2026-01-04T03:00:00:Z","depth":0,"parameterNumber":3,"parameterNumberName":"V-component_of_WINDS"},"data":[0,0,0,0,0,0,0,0,0,0,0,0,0,0,0,0,0,0,0,0,0,0,0,0,0,0,0,0,0,0,0,0,0,0,0,0,0,0,0,0,0,0,0,0,0,0,0,0,0,0,0,0,0,0,0,0,0,0,-0.0152,-0.0152,0,-0.0116,-0.0116,-0.0116,-0.0066,-0.0065,-0.0064,-0.0063,-0.003,-0.003,-0.003,0,0,0,0,0,0,0,0,0,0,0,0,0,-0.0181,-0.0181,-0.0152,-0.0152,-0.0151,-0.0116,-0.0116,-0.0115,-0.0066,-0.0065,-0.0064,-0.0063,-0.003,-0.003,-0.003,0,0,0,0,0,0,0,0,0,0,0,0,0,-0.0159,-0.0181,-0.0152,-0.0122,-0.0119,-0.0117,-0.0116,-0.0115,-0.0066,-0.0065,-0.0064,-0.0062,-0.003,-0.003,-0.003,-0.0055,0,0,-0.0029,-0.0029,0,0,0,0,0,0,0,0,-0.0161,-0.0158,-0.0127,-0.0124,-0.0121,-0.0094,-0.0114,-0.0095,-0.0066,-0.0086,-0.0063,-0.0062,-0.0053,-0.0051,-0.0047,-0.0053,-0.0052,-0.0029,-0.0029,-0.0029,-0.0029,0,0,0,0,0,0,0,-0.0162,-0.016,-0.0138,-0.0127,-0.0123,-0.0112,-0.0107,-0.011,-0.0077,-0.0085,-0.0081,-0.0077,-0.0051,-0.0047,-0.0046,-0.0051,-0.0029,-0.0029,-0.0029,-0.0029,-0.0076,-0.0077,0,0,0,0,0,0,-0.0168,-0.0161,-0.0139,-0.0137,-0.0138,-0.0112,-0.0107,-0.0104,-0.0077,-0.0072,-0.0078,-0.0075,-0.0048,-0.0046,-0.0044,-0.0071,-0.0029,-0.0029,-0.0029,-0.0075,-0.0077,-0.0078,0,0,0,0,0,0,-0.0168,-0.0166,-0.0141,-0.0148,-0.0144,-0.0113,-0.011,-0.0104,-0.01,-0.0072,-0.0066,-0.008,-0.0047,-0.0044,-0.0052,-0.007,-0.0029,-0.0029,-0.0073,-0.0075,-0.0077,-0.0126,0,0,0,0,0,0,-0.017,-0.0167,-0.0175,-0.0149,-0.0144,-0.0149,-0.0111,-0.0104,-0.01,-0.0095,-0.0073,-0.0068,-0.0046,-0.0053,-0.0052,-0.0069,-0.0029,-0.0072,-0.0074,-0.0077,-0.0123,-0.013,-0.0136,0,0,0,0,0,-0.0171,-0.0191,-0.0176,-0.0174,-0.0154,-0.015,-0.0147,-0.012,-0.0101,-0.011,-0.0092,-0.0068,-0.0068,-0.0054,-0.0053,-0.007,-0.007,-0.0074,-0.0076,-0.012,-0.0129,-0.0135,0,0,0,0,0,0,-0.0223,-0.0187,-0.017,-0.0182,-0.0169,-0.0141,-0.0151,-0.013,-0.0123,-0.0119,-0.0087,-0.0082,-0.0094,-0.0082,-0.0068,-0.0092,-0.0066,-0.0069,-0.0099,-0.0107,-0.0113,-0.0116,-0.0029,0,0,0,0,0,-0.0235,-0.0234,-0.0204,-0.0218,-0.0212,-0.0183,-0.018,-0.016,-0.0146,-0.0141,-0.0123,-0.0111,-0.0108,-0.0107,-0.0102,-0.0121,-0.0116,-0.0132,-0.0138,-0.0144,-0.0147,-0.0156,-0.0163,-0.0088,-0.0088,-0.0088,0,0,-0.0262,-0.0242,-0.0244,-0.0228,-0.0215,-0.0215,-0.0179,-0.0181,-0.0181,-0.0141,-0.0147,-0.0134,-0.0118,-0.0132,-0.0137,-0.0123,-0.0166,-0.0147,-0.0152,-0.0152,-0.016,-0.0167,-0.0173,-0.009,-0.0089,-0.0089,0,0,-0.031,-0.0295,-0.0305,-0.0293,-0.0274,-0.0254,-0.0257,-0.0232,-0.0221,-0.0226,-0.0196,-0.0197,-0.0192,-0.0182,-0.0176,-0.022,-0.0199,-0.022,-0.0253,-0.0262,-0.0268,-0.0273,-0.0289,-0.0295,-0.0223,-0.0223,-0.0223,0,-0.0346,-0.0344,-0.0313,-0.0316,-0.031,-0.0273,-0.0283,-0.0273,-0.0255,-0.0252,-0.0236,-0.0229,-0.0216,-0.0226,-0.0237,-0.0234,-0.0236,-0.0223,-0.0269,-0.0274,-0.0279,-0.0294,-0.03,-0.0226,-0.0226,-0.0225,-0.0225,0,-0.0389,-0.0388,-0.0399,-0.038,-0.0375,-0.0382,-0.0353,-0.0352,-0.0332,-0.0315,-0.0321,-0.0303,-0.0295,-0.0296,-0.0277,-0.0304,-0.0295,-0.0275,-0.0248,-0.0289,-0.0303,-0.0308,-0.023,-0.0229,-0.0228,-0.0227,0,0,-0.047,-0.0433,-0.0437,-0.0428,-0.0404,-0.0403,-0.0409,-0.0399,-0.0399,-0.0387,-0.0391,-0.0388,-0.0368,-0.0362,-0.0342,-0.035,-0.0387,-0.0329,-0.0328,-0.0341,-0.0415,-0.0431,-0.0438,-0.0372,-0.0373,-0.0373,-0.0416,0,-0.0514,-0.052,-0.0492,-0.0506,-0.0505,-0.0469,-0.0474,-0.046,-0.0444,-0.0441,-0.0424,-0.0422,-0.0396,-0.0392,-0.0399,-0.0381,-0.0401,-0.0377,-0.0376,-0.0377,-0.0382,-0.0445,-0.0462,-0.0503,-0.0421,-0.0422,-0.0423,0,-0.0567,-0.0556,-0.0569,-0.0543,-0.0542,-0.0547,-0.0535,-0.0533,-0.0517,-0.0505,-0.0497,-0.0474,-0.0478,-0.0452,-0.0458,-0.0442,-0.044,-0.0432,-0.0433,-0.0432,-0.0403,-0.0447,-0.0516,-0.0522,-0.0431,-0.043,-0.043,0,-0.0625,-0.0614,-0.062,-0.0613,-0.0584,-0.0588,-0.0576,-0.0558,-0.0554,-0.0545,-0.0542,-0.0534,-0.0529,-0.0524,-0.0499,-0.0482,-0.0509,-0.048,-0.0499,-0.05,-0.0507,-0.0507,-0.0577,-0.0505,-0.0505,-0.0505,-0.0505,0,-0.0677,-0.0687,-0.0645,-0.0649,-0.0659,-0.0627,-0.0638,-0.0623,-0.0608,-0.0609,-0.0578,-0.058,-0.0547,-0.0546,-0.0527,-0.0535,-0.0533,-0.0524,-0.0519,-0.0527,-0.0528,-0.0526,-0.0523,-0.0506,-0.0506,-0.0506,-0.0506,0,-0.0744,-0.0716,-0.0721,-0.0692,-0.0685,-0.0694,-0.0669,-0.0672,-0.0654,-0.0656,-0.0654,-0.0626,-0.0622,-0.0597,-0.0589,-0.0576,-0.0592,-0.0581,-0.0597,-0.0593,-0.0615,-0.0613,-0.0686,-0.0695,-0.0617,-0.0617,-0.0618,0,-0.0779,-0.0786,-0.0757,-0.0754,-0.0744,-0.0741,-0.0736,-0.0705,-0.0701,-0.0683,-0.0689,-0.0682,-0.0676,-0.0673,-0.0652,-0.0646,-0.0635,-0.0661,-0.0634,-0.0642,-0.0636,-0.0636,-0.0637,-0.0667,-0.0668,-0.0669,-0.0669,0,-0.0845,-0.0831,-0.0825,-0.0813,-0.0808,-0.0798,-0.0786,-0.0786,-0.0752,-0.075,-0.0745,-0.074,-0.0731,-0.0726,-0.0715,-0.0704,-0.0682,-0.0678,-0.0682,-0.0691,-0.07,-0.0696,-0.0613,-0.0677,-0.0676,-0.0675,-0.0675,-0.0675,-0.0898,-0.0902,-0.0882,-0.0875,-0.0863,-0.0852,-0.0854,-0.0834,-0.083,-0.0819,-0.0801,-0.0799,-0.0783,-0.0766,-0.0757,-0.0756,-0.0743,-0.0749,-0.0751,-0.0753,-0.0758,-0.07,-0.0754,-0.0754,-0.0754,-0.0754,-0.0754,0,-0.0963,-0.0948,-0.0942,-0.0926,-0.0921,-0.0898,-0.0884,-0.0882,-0.088,-0.0866,-0.086,-0.0855,-0.085,-0.0828,-0.0821,-0.0824,-0.0814,-0.0823,-0.0823,-0.0821,-0.077,-0.0767,-0.0832,-0.0832,-0.0832,-0.0832,-0.0832,-0.0832,-0.0996,-0.1001,-0.0984,-0.0983,-0.0969,-0.0965,-0.0959,-0.095,-0.0938,-0.0934,-0.0929,-0.0914,-0.0897,-0.0888,-0.0883,-0.0877,-0.0876,-0.0889,-0.088,-0.0832,-0.0825,-0.0818,-0.0815,-0.0889,-0.0889,-0.0932,-0.0932,-0.0932]}]]